Regional Weather Roundup
Issued by NWS

Current Version | Previous Version | Text Only | Print | Product List | Glossary On
Versions: 1 2 3 4 5 6 7 8 9 10 11 12 13 14 15 16 17 18 19 20 21 22 23 24 25 26 27 28 29 30 31 32 33 34 35 36 37 38 39 40 41 42 43 44 45 46 47 48 49 50
000
ASUS42 KTBW 161110
RWRFL
FLORIDA REGIONAL WEATHER ROUNDUP
NATIONAL WEATHER SERVICE TAMPA BAY RUSKIN FL
700 AM EDT TUE SEP 16 2014

NOTE: "FAIR" INDICATES FEW OR NO CLOUDS BELOW 12,000 FEET WITH NO
SIGNIFICANT WEATHER AND/OR OBSTRUCTIONS TO VISIBILITY.


FLZ001>010-012>015-112-114-115-161200-
PANHANDLE FLORIDA

CITY           SKY/WX    TMP DP  RH WIND       PRES   REMARKS
PENSACOLA      MOCLDY    73  73 100 CALM      30.04S
PENSACOLA NAS  MOCLDY    75  74  96 NW3       30.04S
MILTON NAS     PTCLDY    73  70  90 CALM      30.05S
CRESTVIEW      PTCLDY    72  71  97 CALM      30.07R
DUKE FIELD     FAIR      74  74 100 CALM      30.05S
VALPARAISO     PTCLDY    77  74  93 CALM      30.05S
MARY ESTHER    DRIZZLE   75  72  88 CALM      30.04S
PANAMA CITY    PTSUNNY   77  74  90 SW3       30.05R
TYNDALL AFB    TSTM      77  77 100 W8        30.06R
APALACHICOLA   CLOUDY    79  74  84 SW13      30.05F

STATION/POSITION SKY/WX   TEMP    WIND        PRES    WAVE   SWELL
                          AIR SEA DIR/SP/G            HT/PER HT/PER
                          (F)     (DEG/KT/KT) (MB)    (FT/S) (FT/S)
30.1N   87.6W              81 86  290/  8/ 12 1017.6R   3/ 7   2/ 7
29.2N   88.2W              81 85  260/ 16/ 23 1018.3R   3/ 6
28.8N   86.0W              79 86  260/ 16/ 19 1017.4F   4/ 4   2/ 7
PANAMA CITY BEAC           76 86  160/  4/  4 1018.0
CAPE SAN BLAS    NOT AVBL
TOWER C                    78     220/ 13/ 15 1017.7F
28.5N   84.5W              84 85  220/ 14/ 16 1017.9F   3/ 5

$$
FLZ011-016>038-118-127-128-134-139-239-161200-
NORTH FLORIDA

CITY           SKY/WX    TMP DP  RH WIND       PRES   REMARKS
MARIANNA       CLOUDY    76  76 100 S3        30.04F
TALLAHASSEE    MOCLDY    77  74  90 W3        30.05F
PERRY          RAIN      73  73 100 W7        30.05F
CROSS CITY       N/A    N/A N/A N/A MISG      30.05F
LAKE CITY      MOCLDY    72  72 100 CALM      30.07F
GAINESVILLE    CLOUDY    73  72  96 CALM      30.08S
MAYPORT NAS    CLOUDY    77  74  90 W6        30.06F
JACKSONVILLE   CLOUDY    74  74 100 W3        30.06F
JAX NAS        CLOUDY    79  72  79 W7        30.07F
JAX CRAIG      CLOUDY    77  73  87 W6        30.07S
JAX CECIL      MOCLDY    73  73 100 SW6       30.07F
FERNANDINA BEA FAIR      77  72  83 W7        30.05S
ST AUGUSTINE   LGT RAIN  76  74  93 W7        30.08S

STATION/POSITION SKY/WX   TEMP    WIND        PRES    WAVE   SWELL
                          AIR SEA DIR/SP/G            HT/PER HT/PER
                          (F)     (DEG/KT/KT) (MB)    (FT/S) (FT/S)
SHELL POINT                79     260/  6/  8   N/A
KEATON BEACH               82     250/ 12/ 13 1017.5F
CEDAR KEY                  78     250/  6/  9 1018.8F
FERNANDINA                 76 86  240/  8/ 10 1017.5
30.7N   81.3W                 84                N/A     2/ 8
MAYPORT                    78 84  260/  7/  9   N/A
31.4N   80.9W              79 84  290/ 12/ 14 1017.9R   2/ 8   2/ 8
ST AUGUSTINE               76     250/  5/  7 1019.0S

$$
FLZ040-043>046-052-053-057-058-063-144-161200-
INTERIOR CENTRAL FLORIDA

CITY           SKY/WX    TMP DP  RH WIND       PRES   REMARKS
OCALA          MOCLDY    72  68  88 CALM      30.08S
THE VILLAGES     N/A     75  73  94 MISG      29.99S FOG
LEESBURG       CLOUDY    77  73  87 NW6       30.09F
SANFORD        MOCLDY    77  73  87 SW3       30.07F
ORLANDO EXEC   CLOUDY    77  73  87 SW5       30.07F
ORLANDO INTL   CLOUDY    75  73  93 CALM      30.08F
KISSIMMEE      CLEAR     75  75 100 CALM      30.09
WINTER HAVEN   CLOUDY    76  72  87 SW3       30.10S
LAKELAND       MOCLDY    77  70  78 CALM      30.09F
BARTOW         FAIR      72  72 100 CALM      30.10S
OKEECHOBEE       N/A     70  70 100 MISG      30.09

$$
FLZ041-047-054-059-064-141-147-161200-
EAST CENTRAL FLORIDA

CITY           SKY/WX    TMP DP  RH WIND       PRES   REMARKS
ORMOND BEACH   PTCLDY    73  72  94 CALM      30.08
DAYTONA BEACH  CLOUDY    75  73  93 CALM      30.08S
DELAND           N/A     75  72  88 CALM      30.08F
NEW SMYRNA BEA CLOUDY    75  72  88 CALM      30.08
JFK SPACE CTR  PTCLDY    76  73  90 W2        30.08S
TITUSVILLE     MOCLDY    73  72  94 W5        30.08
CAPE CANAVERAL PTCLDY    77  73  87 SW3       30.07S
PATRICK AFB    PTCLDY    78  72  80 W6        30.08S
MELBOURNE      PTCLDY    73  71  93 W5        30.08R
VERO BEACH     PTCLDY    72  71  97 CALM      30.08S
FT PIERCE      PTCLDY    74  71  91 CALM      30.08S
STUART         PTCLDY    75  73  94 CALM      30.09S

STATION/POSITION SKY/WX   TEMP    WIND        PRES    WAVE   SWELL
                          AIR SEA DIR/SP/G            HT/PER HT/PER
                          (F)     (DEG/KT/KT) (MB)    (FT/S) (FT/S)
28.5N   80.2W              81 84  270/  8/ 10 1018.6R
28.9N   78.5W              83 85  260/  6/  8 1018.4R   2/ 8   2/ 8
TRIDENT PIER               78 86  230/  5/  8 1017.9
28.4N   80.5W                 84                N/A     1/ 8
27.6N   80.2W                 83                N/A     1/ 9

$$
FLZ050-056-061-142-242-148-248-149-249-151-251-155-255-
160-260-161200-
WEST CENTRAL FLORIDA

CITY           SKY/WX    TMP DP  RH WIND       PRES   REMARKS
CRYSTAL RIVER  FAIR      72  72 100 CALM      30.08F
INVERNESS      FAIR      72  64  78 CALM      30.09S
BROOKSVILLE    CLOUDY    75  72  90 CALM      30.09F
ZEPHYRHILLS    FAIR      66  64  94 CALM      30.09F
CLEARWATER     MOCLDY    77  74  90 CALM      30.08S
TAMPA INTL     CLOUDY    78  72  81 CALM      30.08F
TAMPA EXEC     CLOUDY    73  72  94 CALM      30.08F
PLANT CITY     CLOUDY    73 N/A N/A CALM      30.10F
MACDILL AFB    CLOUDY    74  73  98 N1        30.08F
ST PETERSBURG  MOCLDY    81  74  79 CALM      30.07S
SARASOTA       MOCLDY    74  72  93 CALM      30.07F
VENICE           N/A    N/A N/A N/A MISG        N/A

STATION/POSITION SKY/WX   TEMP    WIND        PRES    WAVE   SWELL
                          AIR SEA DIR/SP/G            HT/PER HT/PER
                          (F)     (DEG/KT/KT) (MB)    (FT/S) (FT/S)
CEDAR KEY                  78     250/  6/  9 1018.8F
28.5N   84.5W              84 85  220/ 14/ 16 1017.9F   3/ 5
27.3N   84.3W                 86                N/A     2/ 5
CLEARWATER BEACH NOT AVBL
MIDDLE TAMPA BAY           81      70/  3/  4 1018.8
VENICE                     78 87   30/  5/  5 1018.6R

$$
FLZ066-069-070-075>078-162-262-165-265-161200-
SOUTHWEST FLORIDA AND KEYS

CITY           SKY/WX    TMP DP  RH WIND       PRES   REMARKS
PUNTA GORDA    PTCLDY    75  74  96 CALM      30.10R
FT MYERS       CLEAR     75  73  93 CALM      30.08R
SOUTHWEST INTL CLEAR     75  71  87 CALM      30.08R
NAPLES         PTCLDY    77  74  90 CALM      30.08R
MARCO ISLAND   CLOUDY    75  73  94 NE3       30.08R
MARATHON       CLEAR     82  76  81 NE3       30.07R
KEY WEST NAS   CLEAR     80  76  87 NE5       30.07S
KEY WEST INTL  CLEAR     82  76  81 E5        30.08R

STATION/POSITION SKY/WX   TEMP    WIND        PRES    WAVE   SWELL
                          AIR SEA DIR/SP/G            HT/PER HT/PER
                          (F)     (DEG/KT/KT) (MB)    (FT/S) (FT/S)
VENICE                     78 87   30/  5/  5 1018.6R
NAPLES                     79 89   70/  2/  3 1019.2
DRY TORTUGAS               83      80/  7/  8 1018.5R
NW FL BAY                  81      60/  6/  6 1018.1R
SAND KEY                   82      60/ 10/ 12 1018.3R
SOMBRERO KEY               83      70/  7/  8 1019.1R
LONG KEY                   83 83   70/  7/  8 1018.8R
MOLASSES REEF              83 85   70/  6/  7 1018.4R

$$
FLZ067-068-071>074-168-172>174-161200-
SOUTHEAST FLORIDA

CITY           SKY/WX    TMP DP  RH WIND       PRES   REMARKS
W PALM BEACH   PTCLDY    77  75  93 CALM      30.07S
FT LAUDER-EXEC CLEAR     79  77  94 N3        30.07S
FT LAUDERDALE  PTCLDY    80  75  84 N3        30.07R
POMPANO BEACH  CLEAR     78  74  87 CALM      30.08R
PEMBROKE PINES CLEAR     78  75  90 NW3       30.09R
OPA LOCKA      CLEAR     79  74  84 CALM      30.08R
MIAMI          MOCLDY    80  74  81 CALM      30.08S
WEST KENDALL   CLEAR     77  75  93 CALM      30.08R
HOMESTEAD      CLEAR     77  74  89 N2        30.08R

STATION/POSITION SKY/WX   TEMP    WIND        PRES    WAVE   SWELL
                          AIR SEA DIR/SP/G            HT/PER HT/PER
                          (F)     (DEG/KT/KT) (MB)    (FT/S) (FT/S)
PORT EVERGLADES            82     240/  1/  3 1018.4
VIRGINIA KEY               81 85   50/  3/  4   N/A
LAKE WORTH                 79 85  300/  5/  7 1018.2
FOWEY ROCKS                82 85  100/  5/  6 1018.8R
SETTLEMENT POINT           80     130/  3/  4 1019.1S

$$



USA.gov is the U.S. government's official web portal to all federal, state and local government web resources and services.